owner,sensor,date,latitude,longitude,vertical_datum,sea_water_practical_salinity,qcFlag 
DISL,ioos:station:DISL:MHPA:1,2011-02-01T00:00:00Z,30.6671,-87.9365,3.664,1.34,1111122 
DISL,ioos:station:DISL:MHPA:1,2011-02-01T00:30:00Z,30.6671,-87.9365,3.791,1.34,1111122 
DISL,ioos:station:DISL:MHPA:1,2011-02-01T01:00:00Z,30.6671,-87.9365,3.798,1.34,1111122 
DISL,ioos:station:DISL:MHPA:1,2011-02-01T01:30:00Z,30.6671,-87.9365,3.928,1.35,1111122 
DISL,ioos:station:DISL:MHPA:1,2011-02-01T02:00:00Z,30.6671,-87.9365,4.018,1.35,1111122 
DISL,ioos:station:DISL:MHPA:1,2011-02-01T02:30:00Z,30.6671,-87.9365,4.038,1.31,1111122 
DISL,ioos:station:DISL:MHPA:1,2011-02-01T03:00:00Z,30.6671,-87.9365,4.147,1.33,1111122 
DISL,ioos:station:DISL:MHPA:1,2011-02-01T03:30:00Z,30.6671,-87.9365,4.2,1.33,1111122 
DISL,ioos:station:DISL:MHPA:1,2011-02-01T04:00:00Z,30.6671,-87.9365,4.263,1.32,1111122 
DISL,ioos:station:DISL:MHPA:1,2011-02-01T04:30:00Z,30.6671,-87.9365,4.266,1.31,1111122 
DISL,ioos:station:DISL:MHPA:1,2011-02-01T05:00:00Z,30.6671,-87.9365,4.21,1.3,1111122 
DISL,ioos:station:DISL:MHPA:1,2011-02-01T05:30:00Z,30.6671,-87.9365,4.176,1.31,1111122 
DISL,ioos:station:DISL:MHPA:1,2011-02-01T06:00:00Z,30.6671,-87.9365,4.152,1.31,1111122 
DISL,ioos:station:DISL:MHPA:1,2011-02-01T06:30:00Z,30.6671,-87.9365,3.986,1.3,1111122 
DISL,ioos:station:DISL:MHPA:1,2011-02-01T07:00:00Z,30.6671,-87.9365,3.853,1.26,1111122 
DISL,ioos:station:DISL:MHPA:1,2011-02-01T07:30:00Z,30.6671,-87.9365,3.76,1.22,1111122 
DISL,ioos:station:DISL:MHPA:1,2011-02-01T08:00:00Z,30.6671,-87.9365,3.62,1.21,1111122 
DISL,ioos:station:DISL:MHPA:1,2011-02-01T08:30:00Z,30.6671,-87.9365,3.418,1.53,1111122 
DISL,ioos:station:DISL:MHPA:1,2011-02-01T09:00:00Z,30.6671,-87.9365,3.272,1.46,1111122 
DISL,ioos:station:DISL:MHPA:1,2011-02-01T09:30:00Z,30.6671,-87.9365,3.146,1.42,1111122 
DISL,ioos:station:DISL:MHPA:1,2011-02-01T10:00:00Z,30.6671,-87.9365,3.032,1.38,1111122 
DISL,ioos:station:DISL:MHPA:1,2011-02-01T10:30:00Z,30.6671,-87.9365,2.918,1.36,1111122 
DISL,ioos:station:DISL:MHPA:1,2011-02-01T11:00:00Z,30.6671,-87.9365,2.805,1.38,1111122 
DISL,ioos:station:DISL:MHPA:1,2011-02-01T11:30:00Z,30.6671,-87.9365,2.739,1.39,1111122 
DISL,ioos:station:DISL:MHPA:1,2011-02-01T12:00:00Z,30.6671,-87.9365,2.678,1.44,1111122 
DISL,ioos:station:DISL:MHPA:1,2011-02-01T12:30:00Z,30.6671,-87.9365,2.572,1.41,1111122 
DISL,ioos:station:DISL:MHPA:1,2011-02-01T13:00:00Z,30.6671,-87.9365,2.461,1.38,1111122 
DISL,ioos:station:DISL:MHPA:1,2011-02-01T13:30:00Z,30.6671,-87.9365,2.374,1.37,1111122 
DISL,ioos:station:DISL:MHPA:1,2011-02-01T14:00:00Z,30.6671,-87.9365,2.351,1.37,1111122 
DISL,ioos:station:DISL:MHPA:1,2011-02-01T14:30:00Z,30.6671,-87.9365,2.32,1.33,1111122 
DISL,ioos:station:DISL:MHPA:1,2011-02-01T15:00:00Z,30.6671,-87.9365,2.315,1.3,1111122 
DISL,ioos:station:DISL:MHPA:1,2011-02-01T15:30:00Z,30.6671,-87.9365,2.317,1.25,1111122 
DISL,ioos:station:DISL:MHPA:1,2011-02-01T16:00:00Z,30.6671,-87.9365,2.391,1.2,1111122 
DISL,ioos:station:DISL:MHPA:1,2011-02-01T16:30:00Z,30.6671,-87.9365,2.534,1.2,1111122 
DISL,ioos:station:DISL:MHPA:1,2011-02-01T17:00:00Z,30.6671,-87.9365,2.697,1.25,1111122 
DISL,ioos:station:DISL:MHPA:1,2011-02-01T17:30:00Z,30.6671,-87.9365,2.904,1.25,1111122 
DISL,ioos:station:DISL:MHPA:1,2011-02-01T18:00:00Z,30.6671,-87.9365,3.154,1.27,1111122 
DISL,ioos:station:DISL:MHPA:1,2011-02-01T18:30:00Z,30.6671,-87.9365,3.274,1.27,1111122 
DISL,ioos:station:DISL:MHPA:1,2011-02-01T19:00:00Z,30.6671,-87.9365,3.441,1.39,1111122 
DISL,ioos:station:DISL:MHPA:1,2011-02-01T19:30:00Z,30.6671,-87.9365,3.578,1.42,1111122 
DISL,ioos:station:DISL:MHPA:1,2011-02-01T20:00:00Z,30.6671,-87.9365,3.949,1.43,1111122 
DISL,ioos:station:DISL:MHPA:1,2011-02-01T20:30:00Z,30.6671,-87.9365,4.225,0.97,1111122 
DISL,ioos:station:DISL:MHPA:1,2011-02-01T21:00:00Z,30.6671,-87.9365,4.4,1.03,1111122 
DISL,ioos:station:DISL:MHPA:1,2011-02-01T21:30:00Z,30.6671,-87.9365,4.554,1.12,1111122 
DISL,ioos:station:DISL:MHPA:1,2011-02-01T22:00:00Z,30.6671,-87.9365,4.724,1.29,1111122 
DISL,ioos:station:DISL:MHPA:1,2011-02-01T22:30:00Z,30.6671,-87.9365,4.836,1.36,1111122 
DISL,ioos:station:DISL:MHPA:1,2011-02-01T23:00:00Z,30.6671,-87.9365,4.928,1.34,1111122 
DISL,ioos:station:DISL:MHPA:1,2011-02-01T23:30:00Z,30.6671,-87.9365,5.028,1.37,1111122 
DISL,ioos:station:DISL:MHPA:1,2011-02-02T00:00:00Z,30.6671,-87.9365,4.936,1.18,1111122 
DISL,ioos:station:DISL:MHPA:1,2011-02-02T00:30:00Z,30.6671,-87.9365,5.086,1.15,1111122 
DISL,ioos:station:DISL:MHPA:1,2011-02-02T01:00:00Z,30.6671,-87.9365,5.014,1.32,1111122 
DISL,ioos:station:DISL:MHPA:1,2011-02-02T01:30:00Z,30.6671,-87.9365,4.767,1.42,1111122 
DISL,ioos:station:DISL:MHPA:1,2011-02-02T02:00:00Z,30.6671,-87.9365,4.658,1.39,1111122 
DISL,ioos:station:DISL:MHPA:1,2011-02-02T02:30:00Z,30.6671,-87.9365,4.831,1.4,1111122 
DISL,ioos:station:DISL:MHPA:1,2011-02-02T03:00:00Z,30.6671,-87.9365,5.116,1.4,1111122 
DISL,ioos:station:DISL:MHPA:1,2011-02-02T03:30:00Z,30.6671,-87.9365,5.064,1.39,1111122 
DISL,ioos:station:DISL:MHPA:1,2011-02-02T04:00:00Z,30.6671,-87.9365,4.902,1.41,1111122 
DISL,ioos:station:DISL:MHPA:1,2011-02-02T04:30:00Z,30.6671,-87.9365,4.632,1.36,1111122 
DISL,ioos:station:DISL:MHPA:1,2011-02-02T05:00:00Z,30.6671,-87.9365,4.534,1.32,1111122 
DISL,ioos:station:DISL:MHPA:1,2011-02-02T05:30:00Z,30.6671,-87.9365,4.41,1.42,1111122 
DISL,ioos:station:DISL:MHPA:1,2011-02-02T06:00:00Z,30.6671,-87.9365,4.178,1.92,1111122 
DISL,ioos:station:DISL:MHPA:1,2011-02-02T06:30:00Z,30.6671,-87.9365,3.917,1.82,1111122 
DISL,ioos:station:DISL:MHPA:1,2011-02-02T07:00:00Z,30.6671,-87.9365,3.762,1.86,1111122 
DISL,ioos:station:DISL:MHPA:1,2011-02-02T07:30:00Z,30.6671,-87.9365,3.616,2.28,1111122 
DISL,ioos:station:DISL:MHPA:1,2011-02-02T08:00:00Z,30.6671,-87.9365,3.476,2.47,1111122 
DISL,ioos:station:DISL:MHPA:1,2011-02-02T08:30:00Z,30.6671,-87.9365,3.332,2.09,1111122 
DISL,ioos:station:DISL:MHPA:1,2011-02-02T09:00:00Z,30.6671,-87.9365,3.251,2.25,1111122 
DISL,ioos:station:DISL:MHPA:1,2011-02-02T09:30:00Z,30.6671,-87.9365,3.148,2.47,1111122 
DISL,ioos:station:DISL:MHPA:1,2011-02-02T10:00:00Z,30.6671,-87.9365,3.026,2.39,1111122 
DISL,ioos:station:DISL:MHPA:1,2011-02-02T10:30:00Z,30.6671,-87.9365,2.833,2.16,1111122 
DISL,ioos:station:DISL:MHPA:1,2011-02-02T11:00:00Z,30.6671,-87.9365,2.657,2.4,1111122 
DISL,ioos:station:DISL:MHPA:1,2011-02-02T11:30:00Z,30.6671,-87.9365,2.49,2.27,1111122 
DISL,ioos:station:DISL:MHPA:1,2011-02-02T12:00:00Z,30.6671,-87.9365,2.302,2.65,1111122 
DISL,ioos:station:DISL:MHPA:1,2011-02-02T12:30:00Z,30.6671,-87.9365,2.149,2.53,1111122 
DISL,ioos:station:DISL:MHPA:1,2011-02-02T13:00:00Z,30.6671,-87.9365,2.058,2.15,1111122 
DISL,ioos:station:DISL:MHPA:1,2011-02-02T13:30:00Z,30.6671,-87.9365,1.976,2.09,1111122 
DISL,ioos:station:DISL:MHPA:1,2011-02-02T14:00:00Z,30.6671,-87.9365,1.902,2.09,1111122 
DISL,ioos:station:DISL:MHPA:1,2011-02-02T14:30:00Z,30.6671,-87.9365,1.801,2.13,1111122 
DISL,ioos:station:DISL:MHPA:1,2011-02-02T15:00:00Z,30.6671,-87.9365,1.694,2.16,1111122 
DISL,ioos:station:DISL:MHPA:1,2011-02-02T15:30:00Z,30.6671,-87.9365,1.597,2.15,1111122 
DISL,ioos:station:DISL:MHPA:1,2011-02-02T16:00:00Z,30.6671,-87.9365,1.511,2.18,1111122 
DISL,ioos:station:DISL:MHPA:1,2011-02-02T16:30:00Z,30.6671,-87.9365,1.442,2.25,1111122 
DISL,ioos:station:DISL:MHPA:1,2011-02-02T17:00:00Z,30.6671,-87.9365,1.385,2.3,1111122 
DISL,ioos:station:DISL:MHPA:1,2011-02-02T17:30:00Z,30.6671,-87.9365,1.353,2.33,1111122 
DISL,ioos:station:DISL:MHPA:1,2011-02-02T18:00:00Z,30.6671,-87.9365,1.342,2.36,1111122 
DISL,ioos:station:DISL:MHPA:1,2011-02-02T18:30:00Z,30.6671,-87.9365,1.337,2.37,1111122 
DISL,ioos:station:DISL:MHPA:1,2011-02-02T19:00:00Z,30.6671,-87.9365,1.309,2.39,1111122 
DISL,ioos:station:DISL:MHPA:1,2011-02-02T19:30:00Z,30.6671,-87.9365,1.297,2.43,1111122 
DISL,ioos:station:DISL:MHPA:1,2011-02-02T20:00:00Z,30.6671,-87.9365,1.283,2.43,1111122 
DISL,ioos:station:DISL:MHPA:1,2011-02-02T20:30:00Z,30.6671,-87.9365,1.268,2.41,1111122 
DISL,ioos:station:DISL:MHPA:1,2011-02-02T21:00:00Z,30.6671,-87.9365,1.282,2.42,1111122 
DISL,ioos:station:DISL:MHPA:1,2011-02-02T21:30:00Z,30.6671,-87.9365,1.307,2.45,1111122 
DISL,ioos:station:DISL:MHPA:1,2011-02-02T22:00:00Z,30.6671,-87.9365,1.395,2.49,1111122 
DISL,ioos:station:DISL:MHPA:1,2011-02-02T22:30:00Z,30.6671,-87.9365,1.49,2.56,1111122 
DISL,ioos:station:DISL:MHPA:1,2011-02-02T23:00:00Z,30.6671,-87.9365,1.591,2.58,1111122 
DISL,ioos:station:DISL:MHPA:1,2011-02-02T23:30:00Z,30.6671,-87.9365,1.645,2.57,1111122 
DISL,ioos:station:DISL:MHPA:1,2011-02-03T00:00:00Z,30.6671,-87.9365,1.613,2.54,1111122 
DISL,ioos:station:DISL:MHPA:1,2011-02-03T00:30:00Z,30.6671,-87.9365,1.565,2.55,1111122 
DISL,ioos:station:DISL:MHPA:1,2011-02-03T01:00:00Z,30.6671,-87.9365,1.544,2.57,1111122 
DISL,ioos:station:DISL:MHPA:1,2011-02-03T01:30:00Z,30.6671,-87.9365,1.515,2.59,1111122 
DISL,ioos:station:DISL:MHPA:1,2011-02-03T02:00:00Z,30.6671,-87.9365,1.477,2.61,1111122 
DISL,ioos:station:DISL:MHPA:1,2011-02-03T02:30:00Z,30.6671,-87.9365,1.446,2.64,1111122 
DISL,ioos:station:DISL:MHPA:1,2011-02-03T03:00:00Z,30.6671,-87.9365,1.474,2.65,1111122 
DISL,ioos:station:DISL:MHPA:1,2011-02-03T03:30:00Z,30.6671,-87.9365,1.518,2.64,1111122 
DISL,ioos:station:DISL:MHPA:1,2011-02-03T04:00:00Z,30.6671,-87.9365,1.583,2.66,1111122 
DISL,ioos:station:DISL:MHPA:1,2011-02-03T04:30:00Z,30.6671,-87.9365,1.79,2.67,1111122 
DISL,ioos:station:DISL:MHPA:1,2011-02-03T05:00:00Z,30.6671,-87.9365,2.081,2.68,1111122 
DISL,ioos:station:DISL:MHPA:1,2011-02-03T05:30:00Z,30.6671,-87.9365,2.165,2.69,1111122 
DISL,ioos:station:DISL:MHPA:1,2011-02-03T06:00:00Z,30.6671,-87.9365,2.073,2.69,1111122 
DISL,ioos:station:DISL:MHPA:1,2011-02-03T06:30:00Z,30.6671,-87.9365,1.99,2.69,1111122 
DISL,ioos:station:DISL:MHPA:1,2011-02-03T07:00:00Z,30.6671,-87.9365,2.009,2.66,1111122 
DISL,ioos:station:DISL:MHPA:1,2011-02-03T07:30:00Z,30.6671,-87.9365,2.014,2.65,1111122 
DISL,ioos:station:DISL:MHPA:1,2011-02-03T08:00:00Z,30.6671,-87.9365,1.974,2.63,1111122 
DISL,ioos:station:DISL:MHPA:1,2011-02-03T08:30:00Z,30.6671,-87.9365,1.976,2.61,1111122 
DISL,ioos:station:DISL:MHPA:1,2011-02-03T09:00:00Z,30.6671,-87.9365,2.018,2.59,1111122 
DISL,ioos:station:DISL:MHPA:1,2011-02-03T09:30:00Z,30.6671,-87.9365,1.946,2.56,1111122 
DISL,ioos:station:DISL:MHPA:1,2011-02-03T10:00:00Z,30.6671,-87.9365,1.824,2.56,1111122 
DISL,ioos:station:DISL:MHPA:1,2011-02-03T10:30:00Z,30.6671,-87.9365,1.689,2.59,1111122 
DISL,ioos:station:DISL:MHPA:1,2011-02-03T11:00:00Z,30.6671,-87.9365,1.6,2.62,1111122 
DISL,ioos:station:DISL:MHPA:1,2011-02-03T11:30:00Z,30.6671,-87.9365,1.536,2.61,1111122 
DISL,ioos:station:DISL:MHPA:1,2011-02-03T12:00:00Z,30.6671,-87.9365,1.483,2.63,1111122 
DISL,ioos:station:DISL:MHPA:1,2011-02-03T12:30:00Z,30.6671,-87.9365,1.43,2.6,1111122 
DISL,ioos:station:DISL:MHPA:1,2011-02-03T13:00:00Z,30.6671,-87.9365,1.382,2.57,1111122 
DISL,ioos:station:DISL:MHPA:1,2011-02-03T13:30:00Z,30.6671,-87.9365,1.338,2.56,1111122 
DISL,ioos:station:DISL:MHPA:1,2011-02-03T14:00:00Z,30.6671,-87.9365,1.298,2.56,1111122 
DISL,ioos:station:DISL:MHPA:1,2011-02-03T14:30:00Z,30.6671,-87.9365,1.265,2.61,1111122 
DISL,ioos:station:DISL:MHPA:1,2011-02-03T15:00:00Z,30.6671,-87.9365,1.241,2.61,1111122 
DISL,ioos:station:DISL:MHPA:1,2011-02-03T15:30:00Z,30.6671,-87.9365,1.22,2.62,1111122 
DISL,ioos:station:DISL:MHPA:1,2011-02-03T16:00:00Z,30.6671,-87.9365,1.202,2.66,1111122 
DISL,ioos:station:DISL:MHPA:1,2011-02-03T16:30:00Z,30.6671,-87.9365,1.193,2.62,1111122 
DISL,ioos:station:DISL:MHPA:1,2011-02-03T17:00:00Z,30.6671,-87.9365,1.183,2.65,1111122 
DISL,ioos:station:DISL:MHPA:1,2011-02-03T17:30:00Z,30.6671,-87.9365,1.176,2.67,1111122 
DISL,ioos:station:DISL:MHPA:1,2011-02-03T18:00:00Z,30.6671,-87.9365,1.17,2.72,1111122 
DISL,ioos:station:DISL:MHPA:1,2011-02-03T18:30:00Z,30.6671,-87.9365,1.173,2.74,1111122 
DISL,ioos:station:DISL:MHPA:1,2011-02-03T19:00:00Z,30.6671,-87.9365,1.185,2.76,1111122 
DISL,ioos:station:DISL:MHPA:1,2011-02-03T19:30:00Z,30.6671,-87.9365,1.225,2.85,1111122 
DISL,ioos:station:DISL:MHPA:1,2011-02-03T20:00:00Z,30.6671,-87.9365,1.292,2.9,1111122 
DISL,ioos:station:DISL:MHPA:1,2011-02-03T20:30:00Z,30.6671,-87.9365,1.389,3.07,1111122 
DISL,ioos:station:DISL:MHPA:1,2011-02-03T21:00:00Z,30.6671,-87.9365,1.427,2.89,1111122 
DISL,ioos:station:DISL:MHPA:1,2011-02-03T21:30:00Z,30.6671,-87.9365,1.397,2.8,1111122 
DISL,ioos:station:DISL:MHPA:1,2011-02-03T22:00:00Z,30.6671,-87.9365,1.386,2.75,1111122 
DISL,ioos:station:DISL:MHPA:1,2011-02-03T22:30:00Z,30.6671,-87.9365,1.411,2.78,1111122 
DISL,ioos:station:DISL:MHPA:1,2011-02-03T23:00:00Z,30.6671,-87.9365,1.454,2.81,1111122 
DISL,ioos:station:DISL:MHPA:1,2011-02-03T23:30:00Z,30.6671,-87.9365,1.561,2.82,1111122 
DISL,ioos:station:DISL:MHPA:1,2011-02-04T00:00:00Z,30.6671,-87.9365,1.742,2.83,1111122 
DISL,ioos:station:DISL:MHPA:1,2011-02-04T00:30:00Z,30.6671,-87.9365,1.919,2.83,1111122 
DISL,ioos:station:DISL:MHPA:1,2011-02-04T01:00:00Z,30.6671,-87.9365,1.991,2.85,1111122 
DISL,ioos:station:DISL:MHPA:1,2011-02-04T01:30:00Z,30.6671,-87.9365,2.009,2.85,1111122 
DISL,ioos:station:DISL:MHPA:1,2011-02-04T02:00:00Z,30.6671,-87.9365,2.134,2.86,1111122 
DISL,ioos:station:DISL:MHPA:1,2011-02-04T02:30:00Z,30.6671,-87.9365,2.187,2.85,1111122 
DISL,ioos:station:DISL:MHPA:1,2011-02-04T03:00:00Z,30.6671,-87.9365,2.149,2.85,1111122 
DISL,ioos:station:DISL:MHPA:1,2011-02-04T03:30:00Z,30.6671,-87.9365,2.415,2.85,1111122 
DISL,ioos:station:DISL:MHPA:1,2011-02-04T04:00:00Z,30.6671,-87.9365,2.537,2.86,1111122 
DISL,ioos:station:DISL:MHPA:1,2011-02-04T04:30:00Z,30.6671,-87.9365,2.627,2.84,1111122 
DISL,ioos:station:DISL:MHPA:1,2011-02-04T05:00:00Z,30.6671,-87.9365,2.931,2.82,1111122 
DISL,ioos:station:DISL:MHPA:1,2011-02-04T05:30:00Z,30.6671,-87.9365,2.999,2.79,1111122 
DISL,ioos:station:DISL:MHPA:1,2011-02-04T06:00:00Z,30.6671,-87.9365,2.879,2.72,1111122 
DISL,ioos:station:DISL:MHPA:1,2011-02-04T06:30:00Z,30.6671,-87.9365,3.089,2.71,1111122 
DISL,ioos:station:DISL:MHPA:1,2011-02-04T07:00:00Z,30.6671,-87.9365,3.307,2.71,1111122 
DISL,ioos:station:DISL:MHPA:1,2011-02-04T07:30:00Z,30.6671,-87.9365,3.263,2.67,1111122 
DISL,ioos:station:DISL:MHPA:1,2011-02-04T08:00:00Z,30.6671,-87.9365,3.26,2.69,1111122 
DISL,ioos:station:DISL:MHPA:1,2011-02-04T08:30:00Z,30.6671,-87.9365,3.325,2.49,1111122 
DISL,ioos:station:DISL:MHPA:1,2011-02-04T09:00:00Z,30.6671,-87.9365,3.345,2.6,1111122 
DISL,ioos:station:DISL:MHPA:1,2011-02-04T09:30:00Z,30.6671,-87.9365,3.257,2.63,1111122 
DISL,ioos:station:DISL:MHPA:1,2011-02-04T10:00:00Z,30.6671,-87.9365,3.142,2.81,1111122 
DISL,ioos:station:DISL:MHPA:1,2011-02-04T10:30:00Z,30.6671,-87.9365,3.143,2.69,1111122 
DISL,ioos:station:DISL:MHPA:1,2011-02-04T11:00:00Z,30.6671,-87.9365,3.092,2.59,1111122 
DISL,ioos:station:DISL:MHPA:1,2011-02-04T11:30:00Z,30.6671,-87.9365,2.926,2.59,1111122 
DISL,ioos:station:DISL:MHPA:1,2011-02-04T12:00:00Z,30.6671,-87.9365,2.829,2.64,1111122 
DISL,ioos:station:DISL:MHPA:1,2011-02-04T12:30:00Z,30.6671,-87.9365,2.711,2.64,1111122 
DISL,ioos:station:DISL:MHPA:1,2011-02-04T13:00:00Z,30.6671,-87.9365,2.598,2.57,1111122 
DISL,ioos:station:DISL:MHPA:1,2011-02-04T13:30:00Z,30.6671,-87.9365,2.573,2.32,1111122 
DISL,ioos:station:DISL:MHPA:1,2011-02-04T14:00:00Z,30.6671,-87.9365,2.518,2.59,1111122 
DISL,ioos:station:DISL:MHPA:1,2011-02-04T14:30:00Z,30.6671,-87.9365,2.43,2.68,1111122 
DISL,ioos:station:DISL:MHPA:1,2011-02-04T15:00:00Z,30.6671,-87.9365,2.444,2.49,1111122 
DISL,ioos:station:DISL:MHPA:1,2011-02-04T15:30:00Z,30.6671,-87.9365,2.427,2.38,1111122 
DISL,ioos:station:DISL:MHPA:1,2011-02-04T16:00:00Z,30.6671,-87.9365,2.341,2.24,1111122 
DISL,ioos:station:DISL:MHPA:1,2011-02-04T16:30:00Z,30.6671,-87.9365,2.262,2.15,1111122 
DISL,ioos:station:DISL:MHPA:1,2011-02-04T17:00:00Z,30.6671,-87.9365,2.205,2.31,1111122 
DISL,ioos:station:DISL:MHPA:1,2011-02-04T17:30:00Z,30.6671,-87.9365,2.122,2.38,1111122 
DISL,ioos:station:DISL:MHPA:1,2011-02-04T18:00:00Z,30.6671,-87.9365,1.99,2.49,1111122 
DISL,ioos:station:DISL:MHPA:1,2011-02-04T18:30:00Z,30.6671,-87.9365,1.915,2.45,1111122 
DISL,ioos:station:DISL:MHPA:1,2011-02-04T19:00:00Z,30.6671,-87.9365,1.935,2.49,1111122 
DISL,ioos:station:DISL:MHPA:1,2011-02-04T19:30:00Z,30.6671,-87.9365,2.011,2.31,1111122 
DISL,ioos:station:DISL:MHPA:1,2011-02-04T20:00:00Z,30.6671,-87.9365,2.046,2.38,1111122 
DISL,ioos:station:DISL:MHPA:1,2011-02-04T20:30:00Z,30.6671,-87.9365,2.032,2.19,1111122 
DISL,ioos:station:DISL:MHPA:1,2011-02-04T21:00:00Z,30.6671,-87.9365,1.992,2.18,1111122 
DISL,ioos:station:DISL:MHPA:1,2011-02-04T21:30:00Z,30.6671,-87.9365,1.98,2.15,1111122 
DISL,ioos:station:DISL:MHPA:1,2011-02-04T22:00:00Z,30.6671,-87.9365,1.919,2.13,1111122 
DISL,ioos:station:DISL:MHPA:1,2011-02-04T22:30:00Z,30.6671,-87.9365,1.813,2.18,1111122 
DISL,ioos:station:DISL:MHPA:1,2011-02-04T23:00:00Z,30.6671,-87.9365,1.787,2.09,1111122 
DISL,ioos:station:DISL:MHPA:1,2011-02-04T23:30:00Z,30.6671,-87.9365,1.869,1.27,1111122 
DISL,ioos:station:DISL:MHPA:1,2011-02-05T00:00:00Z,30.6671,-87.9365,1.995,1.2,1111122 
DISL,ioos:station:DISL:MHPA:1,2011-02-05T00:30:00Z,30.6671,-87.9365,2.095,1.15,1111122 
DISL,ioos:station:DISL:MHPA:1,2011-02-05T01:00:00Z,30.6671,-87.9365,2.305,1.94,1111122 
DISL,ioos:station:DISL:MHPA:1,2011-02-05T01:30:00Z,30.6671,-87.9365,2.527,1.78,1111122 
DISL,ioos:station:DISL:MHPA:1,2011-02-05T02:00:00Z,30.6671,-87.9365,2.721,1.54,1111122 
DISL,ioos:station:DISL:MHPA:1,2011-02-05T02:30:00Z,30.6671,-87.9365,2.858,1.07,1111122 
DISL,ioos:station:DISL:MHPA:1,2011-02-05T03:00:00Z,30.6671,-87.9365,3.129,2.29,1111122 
DISL,ioos:station:DISL:MHPA:1,2011-02-05T03:30:00Z,30.6671,-87.9365,3.175,2.26,1111122 
DISL,ioos:station:DISL:MHPA:1,2011-02-05T04:00:00Z,30.6671,-87.9365,3.246,2.08,1111122 
DISL,ioos:station:DISL:MHPA:1,2011-02-05T04:30:00Z,30.6671,-87.9365,3.491,2.01,1111122 
DISL,ioos:station:DISL:MHPA:1,2011-02-05T05:00:00Z,30.6671,-87.9365,3.639,1.75,1111122 
DISL,ioos:station:DISL:MHPA:1,2011-02-05T05:30:00Z,30.6671,-87.9365,3.733,1.94,1111122 
DISL,ioos:station:DISL:MHPA:1,2011-02-05T06:00:00Z,30.6671,-87.9365,3.74,1.76,1111122 
DISL,ioos:station:DISL:MHPA:1,2011-02-05T06:30:00Z,30.6671,-87.9365,3.832,1.64,1111122 
DISL,ioos:station:DISL:MHPA:1,2011-02-05T07:00:00Z,30.6671,-87.9365,3.829,1.37,1111122 
DISL,ioos:station:DISL:MHPA:1,2011-02-05T07:30:00Z,30.6671,-87.9365,3.862,1.03,1111122 
DISL,ioos:station:DISL:MHPA:1,2011-02-05T08:00:00Z,30.6671,-87.9365,3.84,0.87,1111122 
DISL,ioos:station:DISL:MHPA:1,2011-02-05T08:30:00Z,30.6671,-87.9365,3.931,0.7,1111122 
DISL,ioos:station:DISL:MHPA:1,2011-02-05T09:00:00Z,30.6671,-87.9365,3.996,0.63,1111122 
DISL,ioos:station:DISL:MHPA:1,2011-02-05T09:30:00Z,30.6671,-87.9365,3.84,1.13,1111122 
DISL,ioos:station:DISL:MHPA:1,2011-02-05T10:00:00Z,30.6671,-87.9365,3.835,1.1,1111122 
DISL,ioos:station:DISL:MHPA:1,2011-02-05T10:30:00Z,30.6671,-87.9365,3.764,0.63,1111122 
DISL,ioos:station:DISL:MHPA:1,2011-02-05T11:00:00Z,30.6671,-87.9365,3.604,0.88,1111122 
DISL,ioos:station:DISL:MHPA:1,2011-02-05T11:30:00Z,30.6671,-87.9365,3.433,0.39,1111122 
DISL,ioos:station:DISL:MHPA:1,2011-02-05T12:00:00Z,30.6671,-87.9365,3.25,0.37,1111122 
DISL,ioos:station:DISL:MHPA:1,2011-02-05T12:30:00Z,30.6671,-87.9365,3.088,0.59,1111122 
DISL,ioos:station:DISL:MHPA:1,2011-02-05T13:00:00Z,30.6671,-87.9365,3.015,0.33,1111122 
DISL,ioos:station:DISL:MHPA:1,2011-02-05T13:30:00Z,30.6671,-87.9365,2.922,0.29,1111122 
DISL,ioos:station:DISL:MHPA:1,2011-02-05T14:00:00Z,30.6671,-87.9365,2.758,0.3,1111122 
DISL,ioos:station:DISL:MHPA:1,2011-02-05T14:30:00Z,30.6671,-87.9365,2.651,0.42,1111122 
DISL,ioos:station:DISL:MHPA:1,2011-02-05T15:00:00Z,30.6671,-87.9365,2.581,0.41,1111122 
DISL,ioos:station:DISL:MHPA:1,2011-02-05T15:30:00Z,30.6671,-87.9365,2.528,0.34,1111122 
DISL,ioos:station:DISL:MHPA:1,2011-02-05T16:00:00Z,30.6671,-87.9365,2.504,0.33,1111122 
DISL,ioos:station:DISL:MHPA:1,2011-02-05T16:30:00Z,30.6671,-87.9365,2.533,0.36,1111122 
DISL,ioos:station:DISL:MHPA:1,2011-02-05T17:00:00Z,30.6671,-87.9365,2.537,0.35,1111122 
DISL,ioos:station:DISL:MHPA:1,2011-02-05T17:30:00Z,30.6671,-87.9365,2.587,0.33,1111122 
DISL,ioos:station:DISL:MHPA:1,2011-02-05T18:00:00Z,30.6671,-87.9365,2.554,0.31,1111122 
DISL,ioos:station:DISL:MHPA:1,2011-02-05T18:30:00Z,30.6671,-87.9365,2.485,0.26,1111122 
DISL,ioos:station:DISL:MHPA:1,2011-02-05T19:00:00Z,30.6671,-87.9365,2.488,0.29,1111122 
DISL,ioos:station:DISL:MHPA:1,2011-02-05T19:30:00Z,30.6671,-87.9365,2.508,0.29,1111122 
DISL,ioos:station:DISL:MHPA:1,2011-02-05T20:00:00Z,30.6671,-87.9365,2.664,0.25,1111122 
DISL,ioos:station:DISL:MHPA:1,2011-02-05T20:30:00Z,30.6671,-87.9365,2.721,0.27,1111122 
DISL,ioos:station:DISL:MHPA:1,2011-02-05T21:00:00Z,30.6671,-87.9365,2.796,0.26,1111122 
DISL,ioos:station:DISL:MHPA:1,2011-02-05T21:30:00Z,30.6671,-87.9365,2.833,0.19,1111122 
DISL,ioos:station:DISL:MHPA:1,2011-02-05T22:00:00Z,30.6671,-87.9365,2.921,0.22,1111122 
DISL,ioos:station:DISL:MHPA:1,2011-02-05T22:30:00Z,30.6671,-87.9365,2.884,0.23,1111122 
DISL,ioos:station:DISL:MHPA:1,2011-02-05T23:00:00Z,30.6671,-87.9365,2.941,0.22,1111122 
DISL,ioos:station:DISL:MHPA:1,2011-02-05T23:30:00Z,30.6671,-87.9365,3.011,0.19,1111122 
DISL,ioos:station:DISL:MHPA:1,2011-02-06T00:00:00Z,30.6671,-87.9365,3.087,0.21,1111122 
DISL,ioos:station:DISL:MHPA:1,2011-02-06T00:30:00Z,30.6671,-87.9365,2.993,0.23,1111122 
DISL,ioos:station:DISL:MHPA:1,2011-02-06T01:00:00Z,30.6671,-87.9365,2.99,0.22,1111122 
DISL,ioos:station:DISL:MHPA:1,2011-02-06T01:30:00Z,30.6671,-87.9365,3.01,0.2,1111122 
DISL,ioos:station:DISL:MHPA:1,2011-02-06T02:00:00Z,30.6671,-87.9365,2.959,0.21,1111122 
DISL,ioos:station:DISL:MHPA:1,2011-02-06T02:30:00Z,30.6671,-87.9365,2.988,0.2,1111122 
DISL,ioos:station:DISL:MHPA:1,2011-02-06T03:00:00Z,30.6671,-87.9365,2.947,0.18,1111122 
DISL,ioos:station:DISL:MHPA:1,2011-02-06T03:30:00Z,30.6671,-87.9365,2.983,0.16,1111122 
DISL,ioos:station:DISL:MHPA:1,2011-02-06T04:00:00Z,30.6671,-87.9365,2.985,0.15,1111122 
DISL,ioos:station:DISL:MHPA:1,2011-02-06T04:30:00Z,30.6671,-87.9365,2.991,0.19,1111122 
DISL,ioos:station:DISL:MHPA:1,2011-02-06T05:00:00Z,30.6671,-87.9365,3.132,0.18,1111122 
DISL,ioos:station:DISL:MHPA:1,2011-02-06T05:30:00Z,30.6671,-87.9365,3.128,0.15,1111122 
DISL,ioos:station:DISL:MHPA:1,2011-02-06T06:00:00Z,30.6671,-87.9365,3.132,0.14,1111122 
DISL,ioos:station:DISL:MHPA:1,2011-02-06T06:30:00Z,30.6671,-87.9365,3.213,0.15,1111122 
DISL,ioos:station:DISL:MHPA:1,2011-02-06T07:00:00Z,30.6671,-87.9365,3.211,0.27,1111122 
DISL,ioos:station:DISL:MHPA:1,2011-02-06T07:30:00Z,30.6671,-87.9365,3.178,0.25,1111122 
DISL,ioos:station:DISL:MHPA:1,2011-02-06T08:00:00Z,30.6671,-87.9365,3.213,0.18,1111122 
DISL,ioos:station:DISL:MHPA:1,2011-02-06T08:30:00Z,30.6671,-87.9365,3.141,0.17,1111122 
DISL,ioos:station:DISL:MHPA:1,2011-02-06T09:00:00Z,30.6671,-87.9365,3.063,0.17,1111122 
DISL,ioos:station:DISL:MHPA:1,2011-02-06T09:30:00Z,30.6671,-87.9365,3.036,0.15,1111122 
DISL,ioos:station:DISL:MHPA:1,2011-02-06T10:00:00Z,30.6671,-87.9365,2.963,0.14,1111122 
DISL,ioos:station:DISL:MHPA:1,2011-02-06T10:30:00Z,30.6671,-87.9365,2.883,0.13,1111122 
DISL,ioos:station:DISL:MHPA:1,2011-02-06T11:00:00Z,30.6671,-87.9365,2.865,0.13,1111122 
DISL,ioos:station:DISL:MHPA:1,2011-02-06T11:30:00Z,30.6671,-87.9365,2.807,0.14,1111122 
DISL,ioos:station:DISL:MHPA:1,2011-02-06T12:00:00Z,30.6671,-87.9365,2.739,0.14,1111122 
DISL,ioos:station:DISL:MHPA:1,2011-02-06T12:30:00Z,30.6671,-87.9365,2.69,0.14,1111122 
DISL,ioos:station:DISL:MHPA:1,2011-02-06T13:00:00Z,30.6671,-87.9365,2.65,0.14,1111122 
DISL,ioos:station:DISL:MHPA:1,2011-02-06T13:30:00Z,30.6671,-87.9365,2.597,0.14,1111122 
DISL,ioos:station:DISL:MHPA:1,2011-02-06T14:00:00Z,30.6671,-87.9365,2.543,0.13,1111122 
DISL,ioos:station:DISL:MHPA:1,2011-02-06T14:30:00Z,30.6671,-87.9365,2.482,0.14,1111122 
DISL,ioos:station:DISL:MHPA:1,2011-02-06T15:00:00Z,30.6671,-87.9365,2.45,0.14,1111122 
DISL,ioos:station:DISL:MHPA:1,2011-02-06T15:30:00Z,30.6671,-87.9365,2.438,0.14,1111122 